METAR TAF Other Links Past 48-hour METAR METAR in this month
How to decode METAR/TAF?
Latest METAR (Issued by Hong Kong International Airport)
ICAO: VHHH

METAR VHHH 181100Z 10015KT 9000 FEW030 SCT045 24/15 Q1013 NOSIG 

Latest TAF (Issued by Hong Kong International Airport)
ICAO: VHHH

TAF VHHH 181100Z 1812/1918 09015KT 9000 FEW030 SCT045 
                      TX25/1906Z TN21/1822Z 
                      TEMPO 1820/1902 4000 -RA BR= 

Other Links

National Weather Service (NWS)

Please select a meteorological centre from the following items.

Latest METAR:

Latest TAF:

Aviation Briefing Limited

To access the provided information, you must be a registered user to the server. You can Register Now, there is no charge for registration or use of the information.

Please select a meteorological centre from the following items.

Latest METAR/TAF:

Weather Underground of Hong Kong

ICAO: VHHH (Hong Kong International Airport)

Decoded 6-hourly Surface Synoptic Report
Latest METAR
Latest TAF

Hong Kong Weather Graphics

METAR from the Hong Kong International Airport (ICAO: VHHH) in the past 72 hours are plotted in the following graphs.

Temperature Variation
Visibility Variation
Pressure Variation
Wind Speeds & Directions

Hong Kong Observatory

Weather Forecast for Local Aviation
Aviation Weather Report (METAR/SPECI)
Aerodrome Forecast (TAF)


If you have any suggestions about this site, please kindly send an email to webmaster@weatherland.org.hk.